GAP2776 RPSP-RPLL

Flight info

Callsign GAP2776
Flight time N/A
Altitude 34000
Route LAMOK2P LAMOK B473 LAIYA LAIYA3R
Aircraft A320/M-SDE3FGHIRWY/LB1

Departure

Time 2026-05-07 12:56
Airport Bohol-Panglao International Airport (RPSP)

Arrival

Time N/A
Airport Ninoy Aquino International Airport (RPLL)
Time Latitude Longitude Altitude Speed Heading
2026-05-07 12:41 9.56916 123.77174 50 ft 0 kts 121°
2026-05-07 12:44 9.56918 123.77171 50 ft 2 kts 121°
2026-05-07 12:44 9.56926 123.77158 50 ft 2 kts 121°
2026-05-07 12:44 9.56934 123.77145 50 ft 2 kts 121°
2026-05-07 12:44 9.56941 123.77132 50 ft 2 kts 121°
2026-05-07 12:45 9.56949 123.77118 50 ft 2 kts 121°
2026-05-07 12:45 9.56957 123.77105 50 ft 2 kts 137°
2026-05-07 12:45 9.56971 123.77098 50 ft 2 kts 171°
2026-05-07 12:45 9.56986 123.77099 50 ft 1 kts 203°
2026-05-07 12:46 9.56991 123.77102 50 ft 1 kts 214°
2026-05-07 12:46 9.56994 123.77104 50 ft 0 kts 211°
2026-05-07 12:51 9.56991 123.77102 50 ft 1 kts 211°
2026-05-07 12:51 9.56979 123.77095 50 ft 3 kts 210°
2026-05-07 12:51 9.56950 123.77078 50 ft 6 kts 210°
2026-05-07 12:51 9.56904 123.77052 50 ft 9 kts 211°
2026-05-07 12:52 9.56846 123.77010 50 ft 11 kts 232°
2026-05-07 12:52 9.56864 123.76928 50 ft 13 kts 301°
2026-05-07 12:52 9.56895 123.76876 50 ft 5 kts 301°
2026-05-07 12:52 9.56917 123.76833 50 ft 8 kts 288°
2026-05-07 12:53 9.56894 123.76768 50 ft 12 kts 214°
2026-05-07 12:53 9.56803 123.76715 50 ft 16 kts 209°
2026-05-07 12:53 9.56692 123.76648 50 ft 20 kts 211°
2026-05-07 12:53 9.56569 123.76575 50 ft 17 kts 210°
2026-05-07 12:54 9.56468 123.76550 50 ft 10 kts 185°
2026-05-07 12:54 9.56428 123.76530 50 ft 6 kts 250°
2026-05-07 12:54 9.56474 123.76520 50 ft 11 kts 21°
2026-05-07 12:54 9.56500 123.76534 50 ft 0 kts 30°
2026-05-07 12:55 9.56622 123.76606 50 ft 54 kts 30°
2026-05-07 12:56 9.57160 123.76926 50 ft 123 kts 31°
2026-05-07 12:56 9.58068 123.77460 115 ft 171 kts 28°
2026-05-07 12:56 9.59079 123.78060 703 ft 172 kts 30°
2026-05-07 12:56 9.60099 123.78629 1441 ft 169 kts 14°
2026-05-07 12:57 9.61244 123.78640 1977 ft 171 kts 348°
2026-05-07 12:57 9.62464 123.78359 2310 ft 188 kts 345°
2026-05-07 12:57 9.63441 123.78111 2588 ft 200 kts 345°
2026-05-07 12:57 9.64996 123.77743 3014 ft 219 kts 346°
2026-05-07 12:58 9.66653 123.77384 3451 ft 238 kts 347°
2026-05-07 12:58 9.68303 123.77048 4080 ft 245 kts 348°
2026-05-07 12:58 9.69956 123.76720 4851 ft 247 kts 348°
2026-05-07 12:58 9.71640 123.76390 5624 ft 249 kts 348°
2026-05-07 12:59 9.73327 123.76061 6396 ft 252 kts 347°
2026-05-07 12:59 9.75052 123.75725 7187 ft 255 kts 347°
2026-05-07 12:59 9.76792 123.75388 7980 ft 258 kts 348°
2026-05-07 12:59 9.78576 123.75148 8780 ft 262 kts 353°
2026-05-07 13:00 9.80421 123.75060 9372 ft 275 kts 357°
2026-05-07 13:00 9.82377 123.75036 9889 ft 289 kts 358°
2026-05-07 13:00 9.84382 123.75021 10571 ft 297 kts 357°
2026-05-07 13:00 9.86506 123.75001 10993 ft 314 kts 357°
2026-05-07 13:01 9.88620 123.74895 11460 ft 325 kts 349°
2026-05-07 13:01 9.90786 123.74335 12176 ft 327 kts 337°
2026-05-07 13:01 9.92847 123.73317 12936 ft 329 kts 329°
2026-05-07 13:01 9.94776 123.72196 13614 ft 333 kts 328°
2026-05-07 13:02 9.96798 123.70996 14300 ft 337 kts 328°
2026-05-07 13:02 9.98827 123.69795 14979 ft 341 kts 328°
2026-05-07 13:02 10.00878 123.68586 15641 ft 345 kts 328°
2026-05-07 13:02 10.02969 123.67359 16294 ft 349 kts 328°
2026-05-07 13:03 10.05082 123.66122 16937 ft 353 kts 328°
2026-05-07 13:03 10.07234 123.64864 17568 ft 357 kts 328°
2026-05-07 13:03 10.09385 123.63608 18175 ft 361 kts 329°
2026-05-07 13:03 10.11549 123.62344 18763 ft 364 kts 328°
2026-05-07 13:04 10.13783 123.61040 19346 ft 368 kts 329°
2026-05-07 13:04 10.15994 123.59748 19905 ft 372 kts 329°
2026-05-07 13:04 10.18233 123.58441 20459 ft 375 kts 329°
2026-05-07 13:04 10.19756 123.57552 20826 ft 377 kts 329°
2026-05-07 13:05 10.22805 123.55770 21538 ft 382 kts 329°
2026-05-07 13:05 10.25123 123.54416 22061 ft 385 kts 329°
2026-05-07 13:05 10.27453 123.53054 22569 ft 388 kts 329°
2026-05-07 13:05 10.29795 123.51685 23064 ft 391 kts 329°
2026-05-07 13:06 10.32167 123.50301 23552 ft 394 kts 329°
2026-05-07 13:06 10.34538 123.48917 24025 ft 397 kts 329°
2026-05-07 13:06 10.36943 123.47514 24491 ft 400 kts 329°
2026-05-07 13:06 10.39354 123.46107 24943 ft 403 kts 329°
2026-05-07 13:07 10.41709 123.44732 25374 ft 406 kts 329°
2026-05-07 13:07 10.44195 123.43282 25818 ft 409 kts 329°
2026-05-07 13:07 10.46671 123.41836 26243 ft 411 kts 329°
2026-05-07 13:07 10.49175 123.40374 26657 ft 414 kts 329°
2026-05-07 13:08 10.51653 123.38926 27059 ft 416 kts 329°
2026-05-07 13:08 10.54152 123.37466 27449 ft 419 kts 329°
2026-05-07 13:08 10.56687 123.35985 27832 ft 421 kts 329°
2026-05-07 13:08 10.59234 123.34496 28206 ft 424 kts 329°
2026-05-07 13:09 10.61792 123.33001 28571 ft 426 kts 329°
2026-05-07 13:09 10.64391 123.31481 28930 ft 428 kts 329°
2026-05-07 13:09 10.66973 123.29973 29275 ft 430 kts 329°
2026-05-07 13:09 10.69557 123.28464 29612 ft 432 kts 329°
2026-05-07 13:10 10.72180 123.26930 29945 ft 434 kts 329°
2026-05-07 13:10 10.74801 123.25398 30260 ft 437 kts 329°
2026-05-07 13:10 10.77433 123.23856 30571 ft 439 kts 329°
2026-05-07 13:10 10.80077 123.22305 30875 ft 440 kts 329°
2026-05-07 13:11 10.82729 123.20750 31170 ft 442 kts 330°
2026-05-07 13:11 10.85392 123.19188 31454 ft 444 kts 329°
2026-05-07 13:11 10.88088 123.17607 31727 ft 446 kts 330°
2026-05-07 13:11 10.90778 123.16029 31997 ft 448 kts 330°